Regional Weather Roundup
Issued by NWS Burlington, VT

Home | Current Version | Previous Version | Text Only | Print | Product List | Glossary On
Versions: 1 2 3 4 5 6 7 8 9 10 11 12 13 14 15 16 17 18 19 20 21 22 23 24 25 26 27 28 29 30 31 32 33 34 35 36 37 38 39 40 41 42 43 44 45 46 47 48 49 50
000
ASUS41 KBTV 272210
RWRBTV
VERMONT REGIONAL WEATHER ROUNDUP
NATIONAL WEATHER SERVICE BURLINGTON VT
600 PM EDT SAT MAY 27 2017

NOTE: "FAIR" INDICATES FEW OR NO CLOUDS BELOW 12,000 FEET WITH NO
SIGNIFICANT WEATHER AND/OR OBSTRUCTIONS TO VISIBILITY.

* THESE REPORTS ARE NOT UNDER NWS QUALITY CONTROL AND/OR DO NOT
  REPORT WEATHER SUCH AS PRECIPITATION AND FOG.

VTZ001>019-272300-
_____VERMONT_____


CITY           SKY/WX    TMP DP  RH WIND       PRES   REMARKS
BURLINGTON     PTSUNNY   69  48  47 W6        29.86S
MONTPELIER     MOSUNNY   64  49  57 W5        29.91S
MORRISVILLE    MOSUNNY   68  47  46 NE3       29.87F
ST. JOHNSBURY*   N/A     69  47  45 MISG      29.84S
LYNDONVILLE*   FAIR      66  48  50 NW3       29.89S
MIDDLEBURY*    CLOUDY    67  49  53 N3        29.87S
RUTLAND*       CLOUDY    67  50  54 VRB5      29.88R
SPRINGFIELD    CLOUDY    69  48  47 SW3       29.86S
HIGHGATE*      FAIR      69  50  50 W3        29.86S
NEWPORT*       PTSUNNY   66  50  56 S3        29.87S
BENNINGTON     CLOUDY    68  52  56 VRB3      29.86F
SUTTON*          N/A     64 N/A N/A MISG        N/A

_____LAKE CHAMPLAIN_____


CITY           SKY/WX    TMP DP  RH WIND       PRES   REMARKS
BURTON ISLAND*   N/A     66  52  59 S2          N/A
COLCHESTER RF*   N/A     64  46  52 SW7         N/A
DIAMOND ISL*     N/A     64  45  48 SW1         N/A

$$

NYZ007-026>031-035-052-083-087-272300-
_____NORTHERN NEW YORK_____


CITY           SKY/WX    TMP DP  RH WIND       PRES   REMARKS
PLATTSBURGH    CLOUDY    67  48  50 SE7       29.86S
SARANAC LAKE   CLOUDY    61  50  67 W3        29.89S
MASSENA        SUNNY     73  47  39 W6        29.85F
OGDENSBURG*    FAIR      75  47  37 CALM      29.86F
POTSDAM*       SUNNY     72  52  49 W3        29.87R
WATERTOWN      SUNNY     65  50  58 SW8       29.88S HAZE
ALBANY         CLOUDY    70  50  49 NW3       29.86F

$$
NHZ002-005-011-272300-
_____NEW HAMPSHIRE_____


CITY           SKY/WX    TMP DP  RH WIND       PRES   REMARKS
LEBANON        CLOUDY    70  51  51 N3        29.85S
KEENE          CLOUDY    69  49  48 SW3       29.86S HAZE
MT WASHINGTON  PTSUNNY   41  37  87 NW10        N/A
PLYMOUTH       CLOUDY    71  46  41 W7        29.84S
WHITEFIELD     PTSUNNY   68  45  43 CALM      29.86S

$$

_____REGIONAL QUEBEC LOCATIONS_____


CITY           SKY/WX    TMP DP  RH WIND       PRES   REMARKS
MONTREAL       MOSUNNY   72  48  43 S8        29.83F
QUEBEC CITY    PTSUNNY   66  32  28 SW9       29.83S
SHERBROOKE     SUNNY     68  45  42 VRB6      29.85S

_____REGIONAL ONTARIO LOCATIONS_____


CITY           SKY/WX    TMP DP  RH WIND       PRES   REMARKS
OTTAWA         MOSUNNY   72  50  46 S6        29.85S

______KEY______
VSB  - VISIBILITY IN MILES
WCI  - WIND CHILL INDEX
HX   - HEAT INDEX
$$
NNNN




USA.gov is the U.S. government's official web portal to all federal, state and local government web resources and services.